Wind_Speed
5 5 5 5 5 5 4 4 5 5 5 5 4 4 4 4 5 5 5 5 5 5 4 5 5 5 5 6 6 6 6 6 7 7 7 7 7 7 7 7 6 6 6
6 7 6 6 6 6 6 6 6 5 6 6 6 5 5 5 6 6 6 6 6 6 6 6 6 6 6 7 7 8 8 8 8 8 8 9 8 8 8 8 8 7 7
7 7 7 7 7 7 7 7 7 7 7 7 6 6 6 7 7 7 7 8 7 7 7 7 6 7 7 8 8 9 9 9 10 10 10 10 10 10 10 9 9 9 9
8 8 8 8 8 8 8 8 7 7 7 8 8 8 8 8 8 8 8 8 8 8 8 8 8 8 8 9 9 10 10 11 11 11 11 11 11 11 11 10 10 10 10
9 9 9 9 9 9 9 9 9 9 8 8 9 9 9 9 9 9 9 9 9 9 9 9 9 10 10 10 10 10 11 11 11 12 12 12 12 12 11 11 11 11 11
10 10 10 10 10 10 10 10 10 10 10 10 9 9 10 10 10 10 10 10 9 9 9 10 10 10 10 11 11 11 12 13 13 13 13 13 13 13 13 12 12 12 12
11 11 11 11 11 11 10 11 11 11 11 10 10 10 11 11 11 11 10 11 11 10 10 10 10 11 11 11 11 12 12 13 13 13 14 14 14 14 14 15 14 14 15
10 11 11 11 11 12 12 11 11 11 11 12 12 11 11 11 11 11 11 11 12 11 11 11 11 11 11 12 12 13 13 14 14 13 14 15 15 15 15 15 16 16 16
11 12 12 12 12 12 13 12 12 12 12 12 13 12 12 12 12 12 12 13 13 13 12 12 12 12 12 13 13 13 14 14 14 14 14 15 15 16 16 16 16 16 16
11 12 12 12 12 13 13 12 13 13 12 12 13 13 12 13 13 13 14 13 13 13 13 14 14 14 14 14 14 14 15 15 16 16 16 15 15 16 16 17 16 16 16
10 10 11 12 12 12 13 14 14 13 13 13 13 13 13 14 14 14 14 14 14 14 14 14 15 15 15 16 16 16 16 16 16 16 16 15 16 16 16 16 17 16 16
10 11 11 12 12 13 13 13 13 13 13 13 14 14 14 14 15 14 15 15 15 15 15 15 15 16 16 16 16 16 16 16 16 15 14 15 15 15 15 16 16 16 16
11 11 11 11 11 12 13 13 13 14 14 15 15 14 14 15 15 15 16 15 16 16 16 16 16 16 17 17 17 16 16 16 15 15 15 15 15 15 15 16 16 16 16
11 11 11 11 12 13 13 13 14 15 15 15 16 15 15 15 15 15 16 16 16 16 17 17 17 17 17 17 17 17 17 17 17 17 16 16 16 17 17 17 17 17 17
12 12 12 12 13 14 14 14 14 15 15 15 15 15 16 16 16 16 17 18 17 17 18 17 17 17 17 16 17 17 17 17 17 18 18 18 18 19 19 18 18 18 18
13 13 13 13 14 14 14 14 15 15 15 15 15 15 15 16 16 16 17 17 17 17 18 18 18 18 18 17 17 18 18 18 18 18 19 19 19 20 20 20 19 19 19
12 12 13 13 13 13 14 14 14 15 15 15 15 16 16 16 16 17 17 16 16 17 17 17 17 17 18 18 18 18 18 18 18 18 18 19 20 20 20 20 19 20 20
13 13 13 13 14 14 15 15 15 15 15 15 16 16 17 17 16 17 17 17 18 17 17 18 18 18 18 18 18 18 18 18 18 18 18 19 19 20 20 20 20 20 21
13 13 14 14 15 15 15 15 15 15 16 16 17 17 18 17 17 17 18 18 18 17 18 18 18 18 18 18 18 18 18 18 18 18 19 19 20 20 20 20 21 21 21
13 13 14 15 15 15 15 15 15 15 16 17 17 18 18 18 18 18 18 18 18 18 18 18 18 18 18 17 18 18 18 18 18 18 19 19 19 19 19 20 20 21 21
13 13 14 15 15 15 15 15 16 16 17 17 17 18 18 18 18 19 19 18 18 18 18 18 18 18 18 18 18 18 17 17 17 17 18 18 18 19 19 19 20 20 21
13 13 14 15 15 16 16 16 17 17 18 18 18 18 19 19 19 19 19 19 19 19 18 18 18 19 19 19 19 19 18 17 17 17 18 17 17 17 18 18 19 20 20
13 14 15 16 16 16 17 17 18 18 19 19 19 18 19 19 19 18 18 18 19 20 20 19 19 19 20 20 19 19 19 18 18 18 17 17 17 18 18 18 19 18 18
14 15 16 17 17 18 19 19 19 20 20 20 20 19 19 20 19 19 19 19 19 20 21 20 20 19 20 20 20 20 20 19 18 17 17 17 17 17 18 18 18 18 18
16 17 17 18 19 19 19 20 20 21 21 20 20 20 20 20 20 20 20 20 20 21 21 20 20 20 21 21 21 20 20 20 20 19 18 18 18 18 19 19 19 19 20
17 18 19 19 20 21 21 21 22 22 21 21 20 20 20 20 20 20 20 20 21 21 21 21 21 22 22 22 22 21 21 21 21 20 19 19 19 18 19 19 19 20 20
Wind_Direction
243 244 242 242 244 243 246 244 247 246 243 248 245 243 254 246 248 256 263 261 260 264 268 271 269 265 268 267 267 267 271 272 274 278 280 280 283 284 283 281 282 280 279
245 249 247 251 251 246 247 246 252 257 256 255 254 252 253 251 254 259 265 263 262 265 269 268 267 265 268 270 270 268 270 271 273 276 277 279 281 281 282 281 278 273 276
249 253 252 256 257 254 254 252 263 268 264 260 258 258 255 255 259 265 265 264 266 267 271 270 266 268 272 272 272 271 270 270 274 276 276 276 278 280 282 279 276 273 276
253 254 255 256 258 258 259 262 262 265 267 263 262 262 260 261 263 266 268 269 270 269 268 271 272 271 274 274 276 276 275 274 274 275 277 278 277 277 279 277 274 273 274
256 257 259 261 262 262 263 267 265 266 269 266 266 268 267 267 265 266 271 274 272 270 270 273 273 273 273 273 275 276 276 277 279 278 277 276 277 277 278 277 276 275 273
259 260 261 263 267 266 266 267 265 264 268 271 270 270 269 270 272 268 269 268 270 274 276 278 275 275 276 275 274 275 275 277 278 280 279 277 275 276 275 275 275 275 275
260 261 261 263 267 267 267 269 268 266 267 268 269 272 270 271 273 273 271 268 269 270 272 276 275 275 273 272 274 276 276 276 277 279 279 280 278 275 274 274 274 273 274
263 263 263 264 266 268 269 269 270 268 267 267 268 271 272 273 272 273 275 270 271 275 273 270 271 274 274 273 272 278 281 281 279 280 281 281 281 279 277 276 274 274 273
266 264 263 265 265 267 270 271 272 270 269 268 269 269 269 273 275 276 277 277 276 274 274 274 271 275 277 278 276 278 281 280 280 282 282 282 283 282 279 277 276 275 273
270 268 266 266 266 267 268 270 272 273 272 272 270 269 268 270 274 278 279 279 277 275 276 276 276 278 279 282 280 281 282 283 284 285 284 282 281 282 282 279 278 276 273
275 276 274 270 269 269 271 271 272 274 273 272 272 272 271 270 271 274 276 276 277 276 275 276 279 281 283 284 283 283 283 284 285 285 283 282 281 282 283 282 279 274 269
275 278 281 280 277 276 274 274 274 273 272 273 274 272 272 272 271 272 274 274 275 275 275 276 278 280 282 284 284 285 286 286 286 285 283 283 283 283 284 283 279 275 272
285 286 288 287 287 283 278 276 276 276 273 273 274 272 272 273 272 273 274 274 275 275 276 277 277 279 282 284 285 285 285 283 281 281 280 280 281 282 284 284 282 278 276
283 287 287 286 287 288 287 283 279 278 276 274 274 276 275 274 274 273 272 273 274 276 277 278 280 280 280 282 284 284 283 282 280 278 279 280 279 280 281 283 283 282 280
280 283 285 286 287 288 286 285 284 282 279 276 276 278 277 276 275 274 272 274 275 276 278 279 280 280 281 282 284 285 285 282 281 281 282 280 278 278 279 281 281 279 279
282 284 284 285 286 289 289 287 287 285 282 279 278 278 279 278 278 280 278 278 277 276 278 279 280 281 281 282 284 285 285 285 283 284 282 280 279 280 278 279 279 278 278
283 285 285 284 287 290 291 290 288 286 284 284 282 280 280 280 279 280 280 279 279 278 278 280 281 282 281 282 283 285 286 285 286 285 283 280 278 278 277 278 279 278 276
281 284 287 285 287 291 292 290 288 286 285 285 284 282 281 281 280 280 279 278 278 278 278 280 282 282 281 282 283 284 286 286 286 285 284 282 279 279 278 277 277 279 277
283 283 287 289 290 291 292 291 287 285 284 284 284 283 280 280 280 280 280 278 278 278 278 279 282 283 283 283 283 283 284 285 286 285 285 283 281 281 280 278 277 278 278
286 286 289 291 292 291 291 290 290 290 287 285 285 284 280 277 279 280 280 278 277 278 279 279 279 281 282 283 282 282 283 284 285 285 286 285 284 282 281 279 278 279 279
291 289 290 291 291 291 290 291 292 292 290 288 286 285 282 280 280 280 280 280 277 278 280 279 279 279 278 280 282 283 284 284 284 285 286 284 283 283 282 281 281 280 280
294 295 293 291 291 291 291 291 291 291 290 289 287 286 284 281 281 281 280 280 277 277 279 279 280 280 277 278 279 280 281 283 284 284 285 285 284 285 285 284 282 281 280
295 293 293 293 292 291 292 293 295 294 291 290 288 287 284 280 280 280 281 282 280 277 278 279 280 280 280 280 279 279 280 282 282 283 284 285 285 285 285 285 284 282 280
293 296 296 294 293 291 292 293 295 294 292 288 287 285 284 283 281 282 282 282 282 281 281 280 280 279 280 280 279 278 279 280 282 282 282 283 283 284 285 284 284 281 279
294 294 295 295 295 293 293 293 295 294 290 288 287 286 286 285 282 282 283 282 282 283 283 282 282 281 280 281 279 278 278 280 280 281 281 280 282 283 284 284 282 283 283
293 293 294 293 292 291 292 293 294 294 292 290 290 288 285 283 282 281 282 282 282 282 284 283 282 282 282 282 280 278 279 278 279 279 279 280 280 282 283 283 283 283 283
Height
5867 5867 5867 5868 5868 5868 5868 5868 5868 5868 5869 5869 5869 5869 5869 5870 5870 5870 5870 5870 5870 5870 5870 5870 5870 5870 5871 5871 5871 5871 5871 5871 5871 5871 5871 5871 5871 5871 5871 5871 5871 5871 5871
5867 5867 5867 5867 5867 5868 5868 5868 5868 5868 5868 5868 5868 5869 5869 5869 5869 5869 5869 5870 5869 5869 5869 5868 5869 5869 5870 5870 5870 5870 5870 5870 5870 5870 5870 5870 5870 5870 5870 5870 5870 5870 5870
5866 5866 5866 5866 5867 5867 5867 5867 5867 5867 5867 5867 5868 5868 5868 5868 5868 5868 5868 5869 5868 5868 5868 5868 5868 5868 5868 5868 5868 5868 5868 5868 5868 5868 5868 5868 5868 5868 5868 5868 5868 5868 5868
5865 5865 5865 5865 5866 5866 5866 5866 5866 5866 5866 5866 5867 5867 5867 5867 5867 5867 5867 5867 5867 5867 5867 5867 5867 5867 5867 5867 5867 5867 5867 5867 5867 5867 5867 5867 5866 5866 5866 5866 5866 5866 5866
5863 5863 5864 5864 5864 5864 5865 5865 5865 5865 5865 5865 5865 5865 5865 5865 5866 5866 5866 5866 5866 5866 5866 5866 5865 5865 5865 5865 5865 5865 5865 5865 5865 5865 5864 5865 5864 5864 5864 5864 5864 5864 5864
5862 5862 5862 5862 5863 5863 5863 5863 5863 5863 5863 5864 5864 5864 5864 5864 5864 5864 5864 5864 5864 5864 5864 5864 5864 5863 5864 5863 5863 5863 5863 5863 5863 5862 5862 5862 5862 5862 5862 5862 5862 5862 5862
5860 5860 5860 5861 5861 5861 5861 5861 5861 5861 5862 5862 5862 5862 5862 5862 5862 5862 5862 5862 5862 5862 5862 5862 5861 5861 5861 5861 5861 5861 5860 5860 5860 5860 5860 5859 5859 5859 5859 5859 5859 5859 5859
5858 5859 5859 5859 5859 5859 5859 5859 5860 5860 5860 5860 5860 5860 5860 5860 5860 5860 5860 5860 5860 5859 5859 5859 5859 5859 5859 5859 5859 5858 5858 5858 5857 5858 5857 5857 5856 5856 5856 5856 5856 5856 5856
5857 5857 5857 5857 5857 5857 5857 5857 5857 5857 5858 5858 5858 5858 5858 5858 5857 5857 5857 5857 5857 5857 5857 5857 5857 5856 5856 5856 5856 5856 5855 5855 5855 5855 5854 5854 5853 5853 5853 5853 5853 5853 5853
5855 5855 5855 5855 5855 5855 5855 5855 5855 5855 5855 5855 5855 5855 5855 5855 5855 5855 5855 5854 5854 5854 5854 5854 5854 5854 5853 5853 5853 5853 5852 5852 5852 5852 5851 5851 5850 5850 5850 5849 5849 5849 5850
5853 5852 5852 5852 5853 5853 5853 5853 5853 5853 5852 5852 5852 5852 5852 5852 5852 5852 5852 5852 5852 5852 5852 5851 5851 5851 5851 5850 5850 5850 5849 5849 5849 5848 5848 5848 5847 5847 5846 5846 5846 5846 5846
5850 5850 5850 5850 5850 5850 5850 5850 5850 5850 5850 5850 5849 5849 5849 5849 5849 5849 5849 5849 5849 5849 5849 5849 5848 5848 5848 5847 5847 5846 5846 5846 5845 5845 5845 5844 5844 5843 5843 5843 5843 5843 5843
5848 5848 5848 5848 5848 5848 5848 5848 5847 5847 5847 5847 5846 5846 5846 5846 5846 5846 5846 5846 5846 5846 5845 5845 5845 5845 5844 5844 5843 5843 5843 5842 5842 5842 5841 5841 5841 5840 5840 5839 5839 5839 5839
5846 5846 5845 5845 5845 5845 5845 5845 5844 5844 5844 5843 5843 5843 5843 5843 5842 5842 5842 5842 5842 5842 5842 5842 5842 5841 5841 5840 5840 5839 5839 5838 5838 5838 5838 5837 5837 5837 5837 5836 5836 5836 5836
5843 5843 5843 5843 5842 5842 5842 5841 5841 5841 5840 5840 5840 5839 5839 5839 5839 5839 5839 5839 5839 5838 5838 5838 5838 5837 5837 5836 5836 5835 5835 5834 5834 5834 5834 5833 5833 5833 5833 5832 5832 5832 5832
5841 5840 5840 5840 5839 5839 5838 5838 5838 5837 5837 5836 5836 5836 5836 5836 5836 5835 5835 5835 5835 5835 5834 5834 5834 5833 5833 5833 5832 5831 5831 5830 5830 5830 5829 5829 5829 5829 5829 5829 5828 5828 5828
5838 5837 5837 5837 5836 5836 5835 5834 5834 5833 5833 5833 5833 5832 5832 5832 5832 5832 5832 5831 5831 5831 5830 5830 5830 5829 5829 5829 5828 5827 5826 5826 5825 5825 5825 5825 5825 5825 5825 5824 5824 5824 5823
5835 5834 5834 5834 5833 5832 5832 5831 5830 5830 5829 5829 5829 5829 5828 5828 5828 5828 5828 5828 5827 5827 5827 5826 5826 5825 5825 5824 5824 5823 5822 5821 5821 5820 5820 5820 5820 5820 5820 5820 5820 5819 5819
5832 5832 5831 5831 5830 5829 5828 5827 5827 5826 5826 5825 5825 5825 5824 5824 5824 5824 5824 5823 5823 5823 5823 5822 5822 5821 5821 5820 5820 5819 5818 5817 5817 5816 5816 5816 5816 5816 5815 5816 5815 5815 5814
5829 5829 5828 5827 5826 5826 5825 5824 5823 5822 5822 5821 5821 5820 5820 5820 5820 5819 5819 5819 5819 5818 5818 5818 5817 5817 5817 5816 5816 5815 5814 5813 5813 5812 5812 5811 5811 5811 5811 5811 5810 5810 5809
5826 5825 5825 5824 5823 5822 5821 5821 5820 5819 5818 5817 5817 5816 5816 5815 5815 5815 5814 5814 5814 5814 5814 5813 5813 5813 5813 5813 5812 5812 5811 5810 5809 5808 5808 5807 5807 5807 5806 5806 5805 5805 5804
5823 5822 5822 5821 5820 5819 5818 5817 5816 5815 5814 5813 5812 5812 5811 5811 5811 5810 5810 5810 5810 5809 5809 5809 5809 5808 5808 5808 5808 5808 5807 5807 5805 5804 5803 5803 5802 5802 5802 5801 5800 5799 5798
5820 5819 5819 5817 5816 5815 5814 5813 5812 5810 5809 5809 5808 5807 5807 5806 5806 5806 5806 5805 5805 5804 5804 5804 5804 5804 5803 5803 5803 5803 5803 5802 5801 5801 5799 5799 5798 5798 5797 5796 5795 5794 5794
5817 5816 5815 5814 5813 5812 5810 5809 5807 5806 5805 5804 5803 5802 5802 5801 5801 5801 5801 5800 5800 5799 5799 5799 5799 5799 5798 5798 5798 5798 5798 5798 5797 5797 5796 5795 5794 5793 5793 5792 5791 5790 5789
5814 5813 5811 5810 5809 5807 5806 5804 5802 5801 5799 5798 5798 5797 5797 5796 5796 5796 5795 5795 5795 5795 5794 5794 5794 5794 5793 5793 5793 5793 5792 5792 5792 5792 5791 5790 5790 5789 5788 5787 5786 5785 5784
5810 5809 5807 5806 5804 5802 5801 5799 5797 5795 5794 5793 5792 5792 5791 5791 5791 5790 5790 5790 5790 5789 5789 5789 5788 5788 5788 5788 5788 5787 5787 5787 5787 5786 5786 5785 5785 5784 5783 5782 5781 5780 5779